Location: Tuttlingen
(47.9853°N, 8.8165°E)
Time: 08:37:00
(UTC+01:00)

ISS - Pass Details

Date: 11 January 2018
Orbit: 402 x 406 km, 51.6° (Epoch: 16 January)

Event Time Altitude Azimuth Distance (km) Brightness Sun altitude
Exits shadow 05:42:24 35° 77° (ENE) 683 -2.2 -24.3°
Drops below altitude 10° 05:44:31 10° 95° (E) 1,464 0.1 -23.9°
Sets 05:46:37 0° 100° (E) 2,323 1.5 -23.6°
